Flag for USA

Past Weather in South Washington Street Historic District, Georgia, USA — Yesterday and Last 2 Weeks

Now
54 °F

Overcast.


Feels Like: 54 °F
Forecast: 71 / 49 °F
Wind: 3 mph from North

Location: Clemson-Oconee County Airport
Current Time: Sep 22, 2020 at 5:02:44 am
Latest Report: Sep 22, 2020 at 3:54 am
Visibility: 10 mi
Pressure30.31 "Hg
Humidity: 80%
Dew Point: 48 °F
Location of South Washington Street Historic DistrictLocation

Past Weather in South Washington Street Historic District — Graph

°F

South Washington Street Historic District Temperature Yesterday

Maximum temperature yesterday: 68 °F (at 3:54 pm)
Minimum temperature yesterday: 51 °F (at 6:54 am)
Average temperature yesterday: 59 °F

High & Low Weather Summary for the Past Weeks

 TemperatureHumidityPressure
High88 °F (Sep 11, 3:54 pm)100% (Sep 14, 2:33 am)30.45 "Hg (Sep 14, 2:33 am)
Low51 °F (Sep 20, 7:54 am)36% (Sep 21, 3:54 pm)29.74 "Hg (Sep 17, 5:54 pm)
Average71 °F78%30.10 "Hg
* Reported Sep 7 2:54 am — Sep 22 2:54 am, South Washington Street Historic District. Weather by CustomWeather, © 2020

Note: Actual official high and low records may vary slightly from our data, if they occured in-between our weather recording intervals... More about our weather records

South Washington Street Historic District Weather History for the Previous 24 Hours

Scroll right to see more
 ConditionsComfort  
Time TempWeatherWind HumidityBarometerVisibility
2:54 am
Tue, Sep 22
53 °FOvercast.6 mph80%30.32 "Hg10 mi
1:54 am54 °FPassing clouds.7 mph77%30.32 "Hg10 mi
12:54 am54 °FPassing clouds.7 mph74%30.34 "Hg10 mi
11:54 pm
Mon, Sep 21
55 °FClear.8 mph72%30.35 "Hg10 mi
10:54 pm55 °FClear.7 mph72%30.36 "Hg10 mi
9:54 pm56 °FClear.5 mph70%30.36 "Hg10 mi
8:54 pm59 °FClear.6 mph67%30.35 "Hg10 mi
7:54 pm60 °FClear.No wind60%30.34 "Hg10 mi
6:54 pm65 °FSunny.7 mph45%30.33 "Hg10 mi
5:54 pm67 °FSunny.8 mph37%30.32 "Hg10 mi
4:54 pm68 °FSunny.7 mph36%30.33 "Hg10 mi
3:54 pm68 °FSunny.9 mph36%30.34 "Hg10 mi
2:54 pm67 °FSunny.9 mph41%30.37 "Hg10 mi
1:54 pm66 °FSunny.12 mph39%30.40 "Hg10 mi
12:54 pm64 °FSunny.12 mph45%30.42 "Hg10 mi
11:54 am62 °FSunny.13 mph44%30.45 "Hg10 mi
10:54 am61 °FSunny.13 mph52%30.45 "Hg10 mi
9:54 am58 °FSunny.13 mph62%30.45 "Hg10 mi
8:54 am54 °FSunny.14 mph72%30.44 "Hg10 mi
7:54 am52 °FSunny.9 mph77%30.43 "Hg10 mi
6:54 am51 °FClear.9 mph77%30.42 "Hg10 mi
5:54 am53 °FClear.12 mph72%30.41 "Hg10 mi
Weather by CustomWeather, © 2020

See weather overview